indice_tiempo,emae_original,emae_desestacionalizada,emae_tendencia_ciclo,emae_original_via,emae_desestacionalizada_vm,emae_tendencia_ciclo_vm
2004-01-01,92.62750602691052,98.32450788229727,96.06024863401694,,,
2004-02-01,90.18617931655959,98.14576729251974,96.65864799637914,,-0.0018178640669273705,0.006229417171738305
2004-03-01,101.88329804238073,97.8198632752463,97.32624669192904,,-0.003320612047405831,0.006906766330674259
2004-04-01,102.5674302511826,95.07996508830037,98.0207720119297,,-0.028009630101775828,0.007136053671103326
2004-05-01,109.87750394051662,96.91701443620025,98.74209945641616,,0.019321098258647994,0.007358924334922392
2004-06-01,105.66240620209851,98.75387372556393,99.48846864828123,,0.018952908321096373,0.007558773775055272
2004-07-01,101.1069972900212,100.86060835294901,100.26085945204859,,0.021333184693490354,0.007763621395138642
2004-08-01,98.35573694243757,102.15532508591934,101.05617958935673,,0.012836693671721945,0.007932508674419551
2004-09-01,98.08637453469638,102.41936303433349,101.86996374104082,,0.0025846714127928296,0.008052789596746095
2004-10-01,97.8356659809799,103.16358286129017,102.69431100860356,,0.007266397728984231,0.00809215236061405
2004-11-01,100.1319466812214,103.6517774331981,103.51238890325367,,0.004732237465660205,0.007966146192670607
2004-12-01,101.67895479099535,102.70835153218196,104.30981386674458,,-0.009101878659284636,0.007703666893788039
2005-01-01,98.473359529179,105.63518956490381,105.07326842517811,0.06311142071092916,0.028496592429533507,0.007319105749808302
2005-02-01,96.11886613343405,105.981308396731,105.79395350553531,0.06578266051220921,0.003276548593823776,0.006858881342121776
2005-03-01,110.65642586719524,106.78974006633182,106.4681694840454,0.08610957824672226,0.007628058964647977,0.0063729159953815895
2005-04-01,116.54519048214907,108.11866994362192,107.09962728487173,0.13627874069512727,0.012444359134731827,0.005930953860542729
2005-05-01,126.66194335502726,109.21196965640503,107.6966722026774,0.15275592193646007,0.010112034428033639,0.005574668492707388
2005-06-01,116.50222321492875,108.64214260023986,108.27100662216779,0.10258915542863108,-0.005217624569522172,0.00533288919465889
2005-07-01,107.58113926245956,109.1319482147756,108.83688887191803,0.06403258079030437,0.004508431100609158,0.005226535407812208
2005-08-01,105.82089279310111,109.37811551882547,109.4080883717575,0.07589954671411277,0.0022556850498571634,0.005248215984119895
2005-09-01,104.89213472672316,109.32071971069637,109.99771312250427,0.06938537818644079,-0.0005247467270473294,0.005389224503615111
2005-10-01,104.46066538498441,109.92202992667856,110.61578893225209,0.06771558549304985,0.005500423136377748,0.0056189878153145405
2005-11-01,108.00375438454834,111.22453413174647,111.27148400972585,0.0786143480101063,0.011849346358839198,0.005927680702755254
2005-12-01,110.50332389924424,112.86355126353325,111.97040089276801,0.08678658357953893,0.014736111457615664,0.006281185959388154
2006-01-01,106.53094787692405,113.78026358003632,112.71200207798299,0.08182505792703722,0.008122306149684845,0.006623189515282632
2006-02-01,104.0901370432872,114.69426624702471,113.49253521836198,0.08293138725531037,0.008033051060261016,0.00692502241100243
2006-03-01,118.58827645043104,114.29285198440917,114.30630199630362,0.07167998171886779,-0.003499863382455288,0.0071702229259038575
2006-04-01,122.08710730131627,115.67063481895867,115.14622253541077,0.04755165611073451,0.012054846918488522,0.0073479810337518355
2006-05-01,133.37101567477424,115.17061703340312,116.00619940279502,0.052968335571338655,-0.004322772035773426,0.007468563435676572
2006-06-01,124.29274775102324,116.26913597149178,116.87948452730201,0.06687017913574195,0.009538187485528909,0.0075279177233863945
2006-07-01,117.04563185352679,118.13272125630814,117.76016841810775,0.08797538914304709,0.01602820274912247,0.007534974117720594
2006-08-01,116.30360797574892,118.84073446419693,118.64794569011339,0.09906092177036725,0.005993370848984512,0.007538858715398362
2006-09-01,114.80248033323909,119.91970723379175,119.54405175633252,0.09448130341074162,0.009079149287148454,0.0075526471276594976
2006-10-01,116.47750825324563,120.60108882916751,120.44865018662018,0.115037012486698,0.00568198181177479,0.007567071861772803
2006-11-01,118.14078229406633,120.65547975371236,121.36378312488445,0.09385810676011318,0.0004509986192735482,0.007597701899078118
2006-12-01,119.60317208093002,123.30591367441292,122.28732546383189,0.08234909015029217,0.021966958534421793,0.00760970295394543
2007-01-01,114.70176482722367,122.06040150547697,123.215930305626,0.07669899792630616,-0.010100992984202577,0.007593631132841665
2007-02-01,112.74324828605302,124.60571207911089,124.14768609036243,0.08313094293619101,0.02085287728239777,0.007561975001327142
2007-03-01,129.28276498944658,126.46331171709593,125.08257345025854,0.09018166769196398,0.014907820893521091,0.007530445305405493
2007-04-01,133.46308313008805,125.23148086723882,126.0170180513122,0.093179174117832,-0.009740618311600002,0.007470621808283226
2007-05-01,147.60791074167543,127.29819912030982,126.94538184285643,0.10674654455371253,0.01650318465260341,0.007366971587648834
2007-06-01,136.12098630494512,128.4549267505025,127.8653811994433,0.09516435003605835,0.009086755650796334,0.007247206186088135
2007-07-01,127.38755189795539,127.80314772490684,128.77244316285623,0.08835801798541866,-0.005073990091961349,0.007093882291705711
2007-08-01,126.59522767863001,128.75760340111867,129.66125871365708,0.08848925568179339,0.007468170332285382,0.006902218587844686
2007-09-01,123.5104632944452,129.6320932498943,130.52557118317827,0.07585187128300092,0.0067917530745840796,0.006665926878204545
2007-10-01,128.41538266104467,131.2940817238888,131.35536957423724,0.10249081206170445,0.012820810281838534,0.006357362649610252
2007-11-01,129.73508945617357,132.6620263105075,132.13676270090582,0.09813975273371427,0.010418935634094168,0.005948695734337264
2007-12-01,128.89792837498598,134.19841714725055,132.84883170880437,0.07771329248497366,0.011581240536360867,0.0053888788656819035
2008-01-01,126.22689251081431,135.30993702208173,133.46467680566815,0.10047907894835831,0.008282660097335963,0.004635683196775489
2008-02-01,122.8249045091645,133.71990588069582,133.95200429999173,0.08942137446255075,-0.011751030089729681,0.003651359340817635
2008-03-01,132.33412728743554,133.11280612276448,134.2756350907981,0.023602235752291135,-0.004540085142394474,0.0024160205179279614
2008-04-01,145.28049855207212,135.97805699330374,134.4018950929426,0.08854445098099134,0.021524982862255654,0.0009403046357525113
2008-05-01,154.15616391286648,134.77025554322907,134.3001717005412,0.044362481240256525,-0.008882326139828223,-0.0007568598071556209
2008-06-01,140.50348421669764,133.07947109014745,133.95005056227424,0.03219560797138683,-0.012545679655102192,-0.0026070043979366632
2008-07-01,136.63868805371584,135.26000622723663,133.34791586500808,0.07262197929018327,0.016385210425220863,-0.0044952181409310295
2008-08-01,131.34092143552698,135.58021834657262,132.50933683766306,0.03748714579465997,0.002367382112921348,-0.006288654921265788
2008-09-01,132.18593848988462,135.98403562114075,131.4675068311415,0.07024081170157487,0.002978438001448609,-0.007862313942435008
2008-10-01,130.39517884255912,132.49518881593616,130.27474538749172,0.015417126363592786,-0.0256562970003678,-0.009072671053097281
2008-11-01,125.52756329262156,130.34593033150674,128.99952737292887,-0.032431674277091954,-0.01622140776307887,-0.009788681687842313
2008-12-01,123.46600579407662,125.2445548556096,127.71907617262069,-0.04214127138728699,-0.039137205610661426,-0.009926014663654427
2009-01-01,116.75841920206521,124.30980405289168,126.521457455967,-0.07501153771917429,-0.007463404726820784,-0.009376976036336516
2009-02-01,114.85886148592792,126.3455376650807,125.49259632111311,-0.06485690385895808,0.016376291698785506,-0.008131910235162678
2009-03-01,126.16560261026108,123.55443563055914,124.7049832301109,-0.046613256939958915,-0.022091021860386206,-0.006276171775001416
2009-04-01,127.9905588745035,121.58043345856419,124.2116173894217,-0.11901074025686569,-0.015976781099930976,-0.003956264039415344
2009-05-01,133.03567047814315,120.95057095433631,124.04214604624832,-0.13700712899590087,-0.005180623940138673,-0.0013643759475579032
2009-06-01,129.31265804805898,122.4474401322464,124.20154574624554,-0.07964803315040299,0.012375875253000714,0.0012850446810053029
2009-07-01,127.3630583750141,124.69043383671013,124.67226418050718,-0.06788435845530998,0.018318012218477123,0.0037899563281069957
2009-08-01,124.00328620894652,126.725032164041,125.4190076305996,-0.055867091127287265,0.016317196634308716,0.005989651788237609
2009-09-01,126.18512812472765,128.30253672862085,126.39584661081673,-0.04539673760848757,0.012448247498077762,0.0077886039657899175
2009-10-01,127.07986188269525,129.3011952554372,127.55083508575957,-0.02542514983523148,0.007783622617911732,0.009137867310617765
2009-11-01,127.09219178029132,129.78455199001488,128.83032231669276,0.01246442173040819,0.0037382232517093428,0.010031194465115903
2009-12-01,126.28656380555832,128.13988896328772,130.18308419165155,0.02284481459767946,-0.012672255684587838,0.010500337580724163
2010-01-01,121.50567852923163,131.74816067094426,131.56261422246274,0.04065881809302922,0.028158848402703995,0.010596845507057537
2010-02-01,119.82280209203972,133.37118233057092,132.92936330372217,0.04321774168656518,0.01231912196239577,0.010388582572161055
2010-03-01,136.89550162046118,134.23377868354154,134.25379477343756,0.08504615194797509,0.00646763669555412,0.0099634229548613
2010-04-01,145.77413149301782,136.90867122172926,135.51373402425506,0.1389444094540704,0.019927119421213887,0.00938475707851481
2010-05-01,158.1106315304388,139.08377065444103,136.69240046063123,0.18848299078114777,0.015887229152849614,0.008697763697996947
2010-06-01,149.86155200805445,140.5642325096785,137.77990393486598,0.15890860392304745,0.010644389696018237,0.007955844440290889
2010-07-01,139.50568662872732,139.4404147794285,138.77296912297777,0.09533869874543882,-0.007995047603398149,0.007207619977592969
2010-08-01,137.24598068715568,140.0486348171704,139.67607199322072,0.10679309301444732,0.0043618633715627195,0.006507772197643362
2010-09-01,136.69642672162283,139.39124903536856,140.502352887372,0.08330061357551813,-0.004693982077440779,0.005915693950724829
2010-10-01,135.13884450692316,140.01035902949104,141.26826834118148,0.06341667755090086,0.004441526985423394,0.005451264253371022
2010-11-01,139.59882328372223,142.16026272837937,141.99000664948014,0.0984059785911282,0.015355318804914048,0.005108990977050496
2010-12-01,138.47764951271685,141.67299210445472,142.6828126845814,0.09653509716147625,-0.003427614824092302,0.004879259121464372
2011-01-01,133.0769197185519,145.471622681715,143.36188150197663,0.0952321021485139,0.02681266570878634,0.004759289536129216
2011-02-01,129.50988684262188,143.8606697094953,144.03151647657296,0.08084508608921695,-0.011074001530486583,0.004670941589079974
2011-03-01,147.00183909502377,144.63534229268652,144.68450633971756,0.07382519772331236,0.0053848809737611705,0.0045336595706177716
2011-04-01,151.03582303961804,144.890266610138,145.3004776326154,0.03609482349652865,0.0017625312970575636,0.004257341082890775
2011-05-01,166.17834208101743,147.30669998606126,145.84705140379694,0.05102573098650524,0.016677679132341153,0.003761679108609002
2011-06-01,156.69365851225533,146.94382630892875,146.29021732050037,0.04558945515147002,-0.002463388815083505,0.0030385661721501834
2011-07-01,146.37808828046835,147.28912223932417,146.59812838333724,0.04926251981419824,0.0023498498648693556,0.0021047959903037847
2011-08-01,146.3985053847187,147.12537205178953,146.74588862610287,0.06668701445199815,-0.001111760224007412,0.001007927211589248
2011-09-01,147.170906821271,148.42796114708665,146.72415051979152,0.07662585153728302,0.008853599329139428,-0.0001481343464874385
2011-10-01,145.0500024277993,147.33079932965984,146.54132714331817,0.07334055546381706,-0.007391880943103217,-0.0012460346563648273
2011-11-01,146.3616451241655,147.30398505003518,146.22354097697146,0.04844469087463892,-0.0001820005032665506,-0.002168577100683109
2011-12-01,143.36165785374328,147.6316077224815,145.81008681357352,0.035269289724461285,0.002224126335312917,-0.0028275485645848164
2012-01-01,136.19408129361287,147.63693109845474,145.35346534462667,0.02342375809158753,3.6058511150542926e-05,-0.0031316178388307494
2012-02-01,132.3605259407412,144.74774211898855,144.91205293594632,0.02201097667225497,-0.01956955456856164,-0.003036820674579559
2012-03-01,147.44101624495764,145.57025299692052,144.5397168053476,0.002987562282469156,0.005682374494351876,-0.002569393801654911
2012-04-01,145.52027831854522,141.6610842204078,144.2799825091713,-0.036518122721296606,-0.026854173129694486,-0.0017969752668471983
2012-05-01,157.40418371936033,140.35516768405793,144.1639266886518,-0.05279965037429136,-0.0092185976377111,-0.0008043792250398952
2012-06-01,149.0331017415051,140.85772122176104,144.20655118559858,-0.04888874791414139,0.003580584498565429,0.00029566686983244493
2012-07-01,146.86279961903688,144.8617386434096,144.40600213103835,0.0033113654117397574,0.02842597045386526,0.001383092125842893
2012-08-01,145.69325698881013,145.03843058899855,144.745312930175,-0.004817319644454443,0.0012197281852586173,0.002349700110309385
2012-09-01,142.47153651731426,146.24463190727246,145.19456567427275,-0.03193138104166053,0.008316425607858235,0.00310374640120088
2012-10-01,147.23130295530083,147.19969822217487,145.71443790029133,0.015038266053027485,0.006530607670495386,0.003580521237859955
2012-11-01,146.37343184468628,146.9826283010707,146.26452913207785,8.053148426128586e-05,-0.0014746628133472939,0.003775131961617433
2012-12-01,143.58505809958143,149.01454622862082,146.80783134587656,0.001558298426389939,0.013824204608642959,0.0037145179150586214
2013-01-01,136.51707182504433,145.7945618467608,147.31552795267575,0.0023715460199416325,-0.02160852388812998,0.00345823926520012
2013-02-01,132.795321964955,148.4551475741964,147.76425366650088,0.0032849372660280094,0.018248868090375226,0.0030460177556386725
2013-03-01,149.40394566736484,148.5467213221298,148.13667216052374,0.013313319945828397,0.0006168445448322757,0.0025203558017719272
2013-04-01,155.94159584157654,148.64877402838331,148.42020399738618,0.07161419455382685,0.0006870074636802315,0.0019139881619265964
2013-05-01,167.9734791225302,148.29507618266393,148.6070781823755,0.06714748714693712,-0.0023794198642490016,0.001259088587377164
2013-06-01,156.27186443024067,148.97625954543508,148.69122596468654,0.04857150930999921,0.004593432097044854,0.000566243434298599
2013-07-01,150.73100129825897,148.18478797260954,148.66737062825655,0.02633888016064148,-0.005312736238918347,-0.00016043540077916417
2013-08-01,148.42144953050052,150.16539572943455,148.53478226869933,0.018725592371786347,0.01336579674555466,-0.0008918457291396464
2013-09-01,147.0048441881334,150.21130035494681,148.2982430829513,0.03181904106346337,0.00030569376712435314,-0.001592483471784618
2013-10-01,148.6939593959755,149.0836633977564,147.96543482775436,0.009934412121033204,-0.00750700482936935,-0.0022441820501593666
2013-11-01,145.69589762827002,148.2625379163177,147.54643110828698,-0.004628805978500168,-0.005507816636138898,-0.0028317675675751273
2013-12-01,142.5768791271264,147.40308409679136,147.05725915169594,-0.0070214755337273975,-0.00579683736434788,-0.003315376406712431
2014-01-01,137.96969739537636,145.52982745140451,146.52056480996242,0.010640614766435021,-0.012708395193120907,-0.0036495603469658988
2014-02-01,132.48630687243056,146.93201813295707,145.9616899782417,-0.002327002848835207,0.009635074170762436,-0.003814309837295298
2014-03-01,144.53782808347017,145.50167484781232,145.4109242794629,-0.03257020798318578,-0.009734728368397186,-0.0037733579191971955
2014-04-01,152.34143546147135,145.069575497051,144.9037044472332,-0.023086594443747117,-0.002969720803648954,-0.0034881824370698667
2014-05-01,164.20324390256107,145.24435757283146,144.47406432076164,-0.022445419596380845,0.0012048155182201015,-0.00296500443594951
2014-06-01,153.80352402990053,144.57771624349982,144.15283257757255,-0.015795168307101193,-0.004589791579320775,-0.0022234561248023967
2014-07-01,145.42281373408593,144.06091651113533,143.96654263771205,-0.035216296040318014,-0.003574546242618055,-0.0012923085625823206
2014-08-01,140.10530396605887,143.48532722836904,143.933712629199,-0.05603061815356199,-0.003995457593259175,-0.00022803915348362124
2014-09-01,141.71873319955728,143.53906049494861,144.06337243210615,-0.03595875372522471,0.00037448614166706306,0.0009008299760959915
2014-10-01,143.3493974176129,143.78820224530693,144.35359096718085,-0.03594336985895921,0.0017357069880436882,0.002014519930882983
2014-11-01,140.8775968982631,144.7384166004825,144.78893852346508,-0.033070943028885864,0.006608430596791663,0.003015841541366342
2014-12-01,140.4359377491282,144.7847258329028,145.34379599139655,-0.015016048822960214,0.0003199512161869222,0.0038321813364323985
2015-01-01,133.99818907035032,143.98138684470823,145.98311875886026,-0.028785366642103866,-0.005548506471060506,0.004398693202574293
2015-02-01,132.627886955774,147.8511333104228,146.6620403611634,0.0010686393687444706,0.026876713376072132,0.004650685696231846
2015-03-01,149.4090129833281,147.67594499092348,147.33071967657733,0.03370179948355684,-0.001184896696946396,0.0045593209651744356
2015-04-01,157.4845995373143,149.8075018921582,147.93923236674704,0.03376076942076395,0.01443401565072591,0.0041302498997188766
2015-05-01,168.88610058983411,150.0429266610077,148.44165017745874,0.02851866123943239,0.001571515217034829,0.0033961093529686084
2015-06-01,162.93739000912225,151.04612321745384,148.80165247439834,0.059386584519650114,0.0066860636403917794,0.002425210825325763
2015-07-01,151.8447963430633,150.63702383997503,148.9959733535645,0.044160764353798926,-0.0027084401026952775,0.0013059053843478808
2015-08-01,146.46506720486232,150.17073690384146,149.01655965630604,0.045392737168209865,-0.003095433806690977,0.0001381668395339375
2015-09-01,145.88232371860067,148.96251350075622,148.8681768374076,0.029379253010825012,-0.008045664741319741,-0.0009957471789758187
2015-10-01,147.04587615341626,149.15824219508767,148.56937631788733,0.02578649650709437,0.0013139459702419742,-0.0020071483769604015
2015-11-01,146.175581385648,148.38539735430004,148.14982007854013,0.03760700497475767,-0.005181375359578197,-0.002823975234637146
2015-12-01,141.9421187346255,146.98001192269086,147.64398584284444,0.010725039542142838,-0.009471184204558511,-0.0034143425582800545
2016-01-01,134.74645041349706,147.95871199557564,147.0892745130698,0.005584115340199816,0.006658729034527227,-0.00375708720276009
2016-02-01,134.2323610386252,147.15613978116713,146.52449506382547,0.012097561980960023,-0.0054242984653213,-0.003839705179823625
2016-03-01,150.0878942366954,146.24220558712747,145.98885803737042,0.004543777110976918,-0.006210642623534142,-0.0036556142112739564
2016-04-01,153.25067436662908,144.99377776946287,145.51546463834845,-0.026884693380333006,-0.008536713547586743,-0.00324266800484736
2016-05-01,163.51360808690507,144.45060287967382,145.13056859465635,-0.031811336067122366,-0.0037461944791360225,-0.0026450525011117066
2016-06-01,153.66209524099784,144.17531865992257,144.85421945101436,-0.05692551456485902,-0.001905732577527317,-0.001904141534881063
2016-07-01,143.73110098180126,144.37867586363626,144.69886885678196,-0.053434135094960734,0.001410485550535725,-0.0010724616433070366
2016-08-01,143.6741026486049,145.56585209760414,144.6722437394816,-0.01905549636865743,0.008222656336654382,-0.00018400363120136377
2016-09-01,142.00773744282046,144.92231242549295,144.77848359641067,-0.026559669307530953,-0.004420952186503797,0.0007343485811996686
2016-10-01,141.1368632980814,144.94122475574744,145.01324828870162,-0.040184825374972345,0.00013049978252468008,0.0016215440751913945
2016-11-01,144.93832064073018,145.74910090635086,145.36437394532174,-0.008464209501952383,0.0055738189874195146,0.0024213350212049533
2016-12-01,142.59014516031914,147.03743078242897,145.8187283987458,0.004565427312700479,0.008839367571165298,0.003125624532975166
2017-01-01,136.6326594831618,147.26840878860634,146.35901911265555,0.013998209703309498,0.0015708789588356354,0.0037052216806630154
2017-02-01,132.15851633982248,146.92332197828873,146.96355268529015,-0.01544966268011919,-0.0023432507566029104,0.004130483903894477
2017-03-01,152.62095855905704,147.91697153171697,147.61001042082316,0.016877206088099683,0.0067630485075411695,0.004398762303449155
2017-04-01,151.9463448044871,147.54472813662224,148.27431281880672,-0.008511085302121302,-0.002516569878628916,0.004500388531168742
2017-05-01,168.38920946936756,148.449085268488,148.92832498909084,0.02981771021694527,0.006129376110465712,0.004410825839289645
2017-06-01,161.03568546945206,150.08654315382478,149.53959711435914,0.0479857457162079,0.011030434322820026,0.004104471901588136
2017-07-01,150.3060501239197,150.39800585117723,150.0731389031776,0.04574479077392539,0.002075220674735867,0.003567896390749503
2017-08-01,149.25534277384085,150.45810549982983,150.49364317076518,0.03884652851381602,0.00039960402608030243,0.0028019955513749473
2017-09-01,146.38655965775365,151.28522169119006,150.76827759421448,0.030835095986909523,0.005497318928830763,0.0018248905246960323
2017-10-01,149.38594966601443,151.74516560172736,150.87127551309783,0.05844742596065018,0.003040243491040817,0.000683153780933754
2017-11-01,151.9260428520267,152.54309041449295,150.78043043490482,0.04821169570894597,0.005258321143883027,-0.0006021363436085059
2017-12-01,146.78338490922403,152.20805613919148,150.4864694251023,0.029407640648589535,-0.0021963254736160343,-0.0019495965686966432
2018-01-01,142.74091260617135,150.9206204352769,149.99722238398232,0.04470565929196679,-0.008458393967906944,-0.003251103192127829
2018-02-01,138.8180403516569,151.87638167512713,149.33557630453035,0.05039042655950077,0.006332873778902348,-0.004411055544470077
2018-03-01,155.85731953577033,151.20494637798532,148.53782069915326,0.021205219828710264,-0.004420932930691346,-0.005342033192079265
2018-04-01,151.52454398394588,146.69801225563023,147.64852771831062,-0.002775985306418316,-0.029806790255978544,-0.005986980128406483
2018-05-01,159.56669237791758,144.58954323408108,146.72050614659508,-0.05239360122451863,-0.014372853381782846,-0.006285342536473171
2018-06-01,151.12576323345104,143.44825758879176,145.8083246133967,-0.0615386720472022,-0.007893279277061183,-0.006217137311992249
2018-07-01,145.96352442999188,143.89556531045196,144.96219299775368,-0.028891223542549582,0.0031182513414869106,-0.005803040518341462
2018-08-01,146.76596003413417,146.76232294926393,144.2264835504538,-0.016678684283206624,0.019922487761363517,-0.005075181549656027
2018-09-01,137.74656971866543,143.26351772625574,143.6314722907773,-0.05902174324807009,-0.02383994170096182,-0.004125533986747532
2018-10-01,142.84327598462374,143.63592070214025,143.19042970852564,-0.043797115431660656,0.002599426440135888,-0.0030706541903211537
2018-11-01,140.59240732535912,141.59799282416432,142.90397841611775,-0.07459968886115431,-0.014188149231848524,-0.0020004918833680385
2018-12-01,136.25161596897593,141.90354441991587,142.75963988814695,-0.07175041607577937,0.0021578808403801553,-0.001010038555753212
2019-01-01,134.53623985644003,142.0236341019424,142.7305022843673,-0.05747947522493691,0.0008462768320371961,-0.00020410253067659756
2019-02-01,132.26788861262864,144.2013248764095,142.78101772323046,-0.04718516211895274,0.015333298491038372,0.0003539218180743653
2019-03-01,144.96325495611205,142.2829082608592,142.8725014591444,-0.06989767700424243,-0.013303737792940029,0.0006407275797071232
2019-04-01,149.91622140467953,142.4462843961022,142.96149453788897,-0.010614271041374912,0.0011482484947769045,0.0006228845847571218